Regional Weather Roundup
Issued by NWS

Home | Current Version | Previous Version | Text Only | Print | Product List | Glossary On
Versions: 1 2 3 4 5 6 7 8 9 10 11 12 13 14 15 16 17 18 19 20 21 22 23 24 25 26 27 28 29 30 31 32 33 34 35 36 37 38 39 40 41 42 43 44 45 46 47 48 49 50
000
ASUS43 KMPX 211601
RWRMN
WEATHER ROUNDUP FOR MINNESOTA
NATIONAL WEATHER SERVICE TWIN CITIES/CHANHASSEN MN
1000 AM CST TUE NOV 21 2017


NOTE: "FAIR" INDICATES FEW OR NO CLOUDS BELOW 12,000 FEET WITH NO
SIGNIFICANT WEATHER AND/OR OBSTRUCTIONS TO VISIBILITY. N/A MEANS
CURRENT SKY AND/OR WEATHER CONDITIONS ARE NOT AVAILABLE.

MNZ060>063-068>070-211700-
   Twin Cities Metro

CITY           SKY/WX    TMP DP  RH WIND       PRES   REMARKS
TWIN CITIES    PTSUNNY   23  10  57 NW18G32   30.03R WCI   9
ST PAUL        CLOUDY    24  10  55 NW22G32   30.04R WCI   9
CRYSTAL        CLOUDY    23   8  52 NW22G28   30.03R WCI   8
BLAINE         PTSUNNY   25  12  58 NW22G28   30.01R WCI  10
LAKEVILLE      MOSUNNY   23  12  63 NW17G28   30.02R WCI   9
EDEN PRAIRIE   CLOUDY    24  10  55 NW18G26   30.02R WCI  10
SOUTH ST PAUL  MOSUNNY   25  10  53 NW15G28   30.02R WCI  12
LAKE ELMO      CLOUDY    25  12  58 NW16G28   30.01R WCI  12
$$
MNZ001>005-007-008-013>017-022>024-027-028-211700-
   Northwest Minnesota

CITY           SKY/WX    TMP DP  RH WIND       PRES   REMARKS
BEMIDJI        MOSUNNY   14   7  74 NW18G24   30.07R WCI  -3
HALLOCK        CLOUDY    14   9  79 NW17      30.21R WCI  -3
ROSEAU         LGT SNOW  16   9  73 NW16      30.13R WCI   0
WARROAD        LGT SNOW  14   9  79 NW12G20   30.11R WCI   0
THIEF RVR FALL FLURRIES  12   7  79 NW22      30.17R WCI  -7
CROOKSTON      FLURRIES  16   9  73 N25G31    30.22R WCI  -3
FOSSTON        FLURRIES  12   7  79 NW20      30.15R WCI  -6
DETROIT LAKES  LGT SNOW  14  10  85 N23       30.15R WCI  -5
MOORHEAD       PTSUNNY   16   7  67 N24       30.23R WCI  -3
PARK RAPIDS    SUNNY     16   6  65 NW17G26   30.07R WCI   0
MAHNOMEN       CLOUDY    13   7  76 N23G29    30.16R WCI  -5
$$
MNZ006-009>011-018-025>026-211700-
   North Central Minnesota

CITY           SKY/WX    TMP DP  RH WIND       PRES   REMARKS
BAUDETTE       LGT SNOW  14   8  77 NW20G36   30.06R WCI  -3
FLAG ISLAND    CLOUDY    16   9  73 N24G30    30.06R HAZE    WCI  -3
INTL FALLS       N/A     15   8  73 NW18      30.00R WCI  -2
WASKISH        FLURRIES  14   9  79 NW15      30.07R WCI  -1
BIG FORK       MOSUNNY   18   9  68 NW9G20    30.00R WCI   6
LONGVILLE      MOSUNNY   19   9  63 NW10G17   30.04R WCI   8
GRAND RAPIDS   MOSUNNY   17   8  67 NW21G30   30.01R WCI   0
CRANE LAKE     CLOUDY    14   7  73 N9G21     29.98R WCI   2
ORR            CLOUDY    16   7  67 NW12G23   29.94R WCI   3
COOK           CLOUDY    16   9  73 NW14G23   29.96R WCI   1
WALKER         FLURRIES  16   8  70 NW15      30.06R WCI   1
$$
MNZ012-019>021-037-211700-
   Northeast Minnesota

CITY           SKY/WX    TMP DP  RH WIND       PRES   REMARKS
DULUTH         FLURRIES  18   9  68 NW21G33   29.89R WCI   1
ELY            CLOUDY    16   5  62 NW12G25   29.90R WCI   3
HIBBING        PTSUNNY   16   7  67 NW25G36   29.94R WCI  -3
EVELETH        FLURRIES  18   7  62 N10G18    29.93R WCI   6
DULUTH HARBOR  FLURRIES  25  12  58 NW22G30   29.96R WCI  10
TWO HARBORS    PTSUNNY   23  10  58 W15G29    29.86R WCI  10
SILVER BAY     PTSUNNY   19   9  63 NW20G29   29.83R WCI   4
GRAND MARAIS     N/A     20   8  60 NW9       29.84R WCI   9
G MARAIS ARPRT CLOUDY    10   1  67 NW13G23   29.74R HAZE    WCI  -5
$$
MNZ029>031-032-039>041-046>048-054>057-064-211700-
   West Central Minnesota

CITY           SKY/WX    TMP DP  RH WIND       PRES   REMARKS
FERGUS FALLS   LGT SNOW  16   9  73 N18G29    30.22R WCI  -1
WHEATON        SUNNY     18   7  62 NW23G33   30.23R WCI   0
MORRIS         MOSUNNY   18   9  68 N26G38    30.15R WCI  -1
ALEXANDRIA     PTSUNNY   17   8  67 N20G33    30.10R WCI   1
ELBOW LAKE     FAIR      15   8  74 NW23G30   30.16R HAZE    WCI  -3
WADENA         MOSUNNY   16   7  67 NW18G25   30.09R WCI  -1
GLENWOOD       FLURRIES  18   9  68 NW22G30   30.10R WCI   0
APPLETON       MOSUNNY   21   9  58 NW26G33   30.17R WCI   4
BENSON           N/A     19   9  63 N23G32    30.15R WCI   2
ORTONVILLE     SUNNY     19   7  58 MISG      30.19R
MADISON        MOSUNNY   23  12  63 NW24G31   30.19R WCI   7
WILLMAR        FAIR      21  12  68 NW28G36   30.12R WCI   3
$$
MNZ033>034-036-042>043-049>051-058-059-211700-
   Central Minnesota

CITY           SKY/WX    TMP DP  RH WIND       PRES   REMARKS
ST CLOUD       MOSUNNY   20  10  65 NW20G30   30.05R WCI   4
SAUK CENTRE    FAIR      17   8  66 NW21      30.09R WCI   0
PAYNESVILLE    CLOUDY    20  13  73 NW20G28   30.08R WCI   5
AITKIN         LGT RAIN  19   9  63 NW18G25   29.99R WCI   4
PINE RIVER     FLURRIES  16   9  73 NW9G20    30.08R WCI   4
BRAINERD       FLURRIES  20   8  60 NW15G26   30.04R WCI   6
STAPLES        FLURRIES  16   7  67 NW16G25   30.08R WCI   0
LONG PRAIRIE   PTSUNNY   18   9  68 W24G32    30.06R WCI   0
LITTLE FALLS   PTSUNNY   19   3  49 NW12G26   30.06R WCI   7
LITCHFIELD     MOSUNNY   21  12  68 NW24G33   30.07R WCI   4
BUFFALO        MOSUNNY   22  10  58 NW16G25   30.06R WCI   8
MAPLE LAKE     MOSUNNY   23  13  64 NW15G22   30.06R WCI  10
HUTCHINSON     MOSUNNY   23  13  67 NW26      30.07R WCI   6
$$
MNZ037-044-045-052-053-211700-
   East Central Minnesota

CITY           SKY/WX    TMP DP  RH WIND       PRES   REMARKS
PRINCETON      FLURRIES  23  12  63 NW16G29   30.03R WCI  10
MORA           FLURRIES  23  12  63 NW21G28   30.02R WCI   8
RUSH CITY      CLOUDY    23  12  63 NW14G26   30.00R WCI  11
MOOSE LAKE     FLURRIES  23  12  63 NW15G29   29.96R WCI  10
HINCKLEY       CLOUDY    23  12  63 NW20G29   29.99R WCI   8
CLOQUET        FLURRIES  19   9  63 NW14G25   29.93R WCI   6
MCGREGOR       CLOUDY    21  10  63 NW18G30   29.99R WCI   6
$$
MNZ071>073-080-081-089-090-097-098-211700-
   Southwest Minnesota

CITY           SKY/WX    TMP DP  RH WIND       PRES   REMARKS
MONTEVIDEO     MOSUNNY   21  10  63 N21G37    30.15R WCI   6
GRANITE FALLS  SUNNY     23  12  62 NW30G38   30.17R WCI   5
CANBY          MOSUNNY   21  11  63 W24G35    30.20R WCI   5
MARSHALL       FLURRIES  20  11  68 NW30G39   30.14R WCI   1
REDWOOD FALLS  MOSUNNY   23   9  55 NW21G33   30.12R WCI   8
OLIVIA         SUNNY     23  12  63 NW26G36   30.11R WCI   6
PIPESTONE      MOSUNNY   18   9  68 N23G31    30.15R WCI   0
WINDOM           N/A     21   7  53 NW28G37   30.10R WCI   3
WORTHINGTON    MOSUNNY   21  11  65 NW28G36   30.12R WCI   3
JACKSON        MOSUNNY   23  12  63 NW32G41   30.11R WCI   5
SLAYTON        PTSUNNY   20  11  70 NW24G33   30.12R WCI   2
$$
MNZ065>067-074>077-082>085-091>093-211700-
   South Central Minnesota

CITY           SKY/WX    TMP DP  RH WIND       PRES   REMARKS
MANKATO        FLURRIES  23  13  65 NW24G33   30.07R WCI   7
NEW ULM        PTSUNNY   21  10  63 NW29G35   30.09R WCI   3
ST JAMES       MOSUNNY   25  12  58 NW29G37   30.11R WCI   8
FAIRMONT       PTSUNNY   23  13  65 NW29G39   30.08R WCI   6
GLENCOE        CLOUDY    24  15  68 NW18G28   30.07R WCI  10
FARIBAULT      PTSUNNY   25  12  58 NW17G25   30.02R WCI  11
OWATONNA       CLOUDY    25  16  68 NW23G30   30.00R WCI  10
WASECA         CLOUDY    23  14  68 NW21G33   30.04R WCI   8
ALBERT LEA     CLOUDY    23  10  58 NW16G30   30.01R WCI  10
$$
MNZ078>079-086>088-094>096-211700-
   Southeast Minnesota

CITY           SKY/WX    TMP DP  RH WIND       PRES   REMARKS
ROCHESTER      CLOUDY    25  16  68 NW28G35   29.94R WCI   9
RED WING       CLOUDY    25   9  50 NW20G26   29.98R WCI  11
STANTON        MOSUNNY   25  11  56 NW25G32   30.00R WCI   9
DODGE CENTER   CLOUDY    25  12  58 NW22G32   29.96R WCI  10
WINONA         CLOUDY    30  18  59 NW18G30   29.94R WCI  18
PRESTON        CLOUDY    25  16  68 NW20G30   29.94R WCI  11
$$
ABBREVIATIONS USED IN REMARKS
   TC - TEMPERATURES IN CELSIUS
  WCI - WIND CHILL INDEX
   HX - HEAT INDEX
  VSB - VISIBILITY
$$




USA.gov is the U.S. government's official web portal to all federal, state and local government web resources and services.